Regional Weather Roundup
Issued by NWS

Home | Current Version | Previous Version | Graphics & Text | Print | Product List | Glossary Off
Versions: 1 2 3 4 5 6 7 8 9 10 11 12 13 14 15 16 17 18 19 20 21 22 23 24 25 26 27 28 29 30 31 32 33 34 35 36 37 38 39 40 41 42 43 44 45 46 47 48 49 50

000
ASUS43 KMKX 211921
RWRWI

WISCONSIN REGIONAL WEATHER ROUNDUP
NATIONAL WEATHER SERVICE MILWAUKEE/SULLIVAN WI
200 PM CDT FRI JUL 21 2017

NOTE: "FAIR" INDICATES FEW OR NO CLOUDS BELOW 12,000 FEET WITH NO
SIGNIFICANT WEATHER AND/OR OBSTRUCTIONS TO VISIBILITY.

WIZ001-002-006>008-014>016-023>028-212000-
NORTHWEST WISCONSIN

CITY           SKY/WX    TMP DP  RH WIND       PRES   REMARKS
SUPERIOR ARPT  NOT AVBL
ASHLAND        CLOUDY    79  70  74 NE5       29.93F HX  82
HAYWARD        CLOUDY    80  65  59 S7        29.93F HX  82
SIREN          CLOUDY    83  64  53 S15       29.89F HX  84
CUMBERLAND     CLOUDY    75  64  69 S9        29.92F
RICE LAKE      CLOUDY    76  67  73 S7        29.92F
CHETEK         CLOUDY    76  69  79 SE10      29.92F
LADYSMITH      CLOUDY    81  67  63 S9        29.95F HX  83
EAU CLAIRE     LGT RAIN  73  70  90 S9        29.91F
MENOMONIE      PTSUNNY   74  70  87 S3        29.91S
NEW RICHMOND   LGT RAIN  72  71  96 SE9       29.88F
OSCEOLA        CLOUDY    73  73  98 SE6       29.91F
$$

WIZ003>005-009-010-017-018-212000-
NORTH CENTRAL WISCONSIN

CITY           SKY/WX    TMP DP  RH WIND       PRES   REMARKS
MANITOWISH WTR MOSUNNY   79  64  59 S8        29.97S HX  81
ARBOR VITAE    MOSUNNY   82  64  54 S6        29.98S HX  84
WOODRUFF       MOSUNNY   82  64  54 S6        29.98S HX  84
RHINELANDER    CLOUDY    82  63  52 SW7       29.99F HX  83
EAGLE RIVER    MOSUNNY   82  60  46 SW8       29.98F HX  82
LAND O LAKES   CLOUDY    82  60  47 S3        30.00S HX  82
PHILLIPS       CLOUDY    80  66  62 S6        29.95F HX  82
TOMAHAWK         N/A     79  65  61 S5        29.98F HX  81
MEDFORD        CLOUDY    76  66  70 S6        29.96F
MERRILL        PTSUNNY   80  66  61 SW10G17   29.98F HX  82
$$

WIZ029-030-035-036-043>047-212000-
CENTRAL WISCONSIN

CITY           SKY/WX    TMP DP  RH WIND       PRES   REMARKS
WAUSAU         CLOUDY    79  64  60 SW9       29.96F HX  81
MOSINEE        PTSUNNY   77  68  73 S7        29.99F
MARSHFIELD     CLOUDY    76  67  73 SW7       29.96F
STEVENS POINT  CLOUDY    76  65  67 S6        29.97F
WAUPACA        LGT RAIN  80  71  73 CALM      29.97F HX  83
WAUTOMA        LGT RAIN  77  73  87 SW5       29.99R
WISC RAPIDS    LGT RAIN  77  70  79 S10       29.98F
CAMP DOUGLAS   LGT RAIN  72  72 100 E8        29.96F
$$

WIZ011>013-019>022-031-037>040-048>050-212000-
NORTHEAST WISCONSIN

CITY           SKY/WX    TMP DP  RH WIND       PRES   REMARKS
ANTIGO         PTSUNNY   79  64  60 SW12      29.99F HX  80
SHAWANO        CLOUDY    83  67  58 SW5       29.95F HX  85
OCONTO         CLOUDY    83  67  58 SW5       29.94F HX  86
STURGEON BAY     N/A     83  67  58 SW6       29.96F HX  85
GREEN BAY      CLOUDY    83  71  67 W5        29.95F HX  87
MANITOWOC      CLOUDY    80  66  62 SE7       29.95F HX  82
APPLETON       CLOUDY    79  64  61 SW5       29.95F HX  81
CLINTONVILLE   CLOUDY    79  66  65 SW5       29.96F HX  81
OSHKOSH        CLOUDY    80  69  69 SW3       29.97S HX  83
$$

WIZ032>034-041-042-053>061-212000-
SOUTHWEST WISCONSIN

CITY           SKY/WX    TMP DP  RH WIND       PRES   REMARKS
LA CROSSE      LGT RAIN  74  70  87 CALM      29.93S
SPARTA         LGT RAIN  69  68  96 CALM      29.97R
VIROQUA        CLOUDY   N/A N/A N/A CALM      29.95F
BOSCOBEL       CLOUDY    73  71  93 E3        29.92F
PRAIRIE DU CHI LGT RAIN  70  69  96 CALM      29.91F
PLATTEVILLE    CLOUDY    72  72 100 SE8       29.96F
$$

WIZ056-057-062-063-064-067-068-212000-
SOUTH CENTRAL WISCONSIN

CITY           SKY/WX    TMP DP  RH WIND       PRES   REMARKS
REEDSBURG      DRIZZLE   72  72 100 CALM      29.95F
BARABOO/DELLS  RAIN      72  70  93 S8        29.98F
LONE ROCK      LGT RAIN  73  71  93 E6        29.95F FOG
MINERAL POINT  LGT RAIN  72  72 100 NE10      29.94F
MADISON        TSTM      75  73  93 N5        29.98F
MIDDLETON      CLOUDY    74  74 100 W3        30.00F
WATERTOWN      PTSUNNY   78  73  85 S5        30.00R HX  81
MONROE         TSTM      72  68  88 NE5       29.96F
JANESVILLE     CLOUDY    82  72  69 S8        29.96S HX  87
$$

WIZ051-052-058>065-066-070>072-212000-
SOUTHEAST WISCONSIN

CITY           SKY/WX    TMP DP  RH WIND       PRES   REMARKS
MILWAUKEE      CLOUDY    83  72  69 SE8       29.97S HX  88
WAUKESHA       MOSUNNY   81  70  69 SE7       29.99R HX  84
MILWAUKEE/TIMM PTSUNNY   82  64  54 S7        29.98F HX  84
RACINE         CLOUDY    81  72  74 S9        30.00S HX  85
KENOSHA        CLOUDY    84  70  62 S10       29.99R HX  88
FOND DU LAC    CLOUDY    80  69  69 SW8       29.98R HX  83
SHEBOYGAN      CLOUDY    81  67  62 S12       29.96F HX  83
WEST BEND      CLOUDY    79  68  69 SW3       29.98R HX  81
JUNEAU         CLOUDY    78  69  74 CALM      30.02R HX  80
$$

LSZ147-162-212000-
LAKE SUPERIOR

STATION/POSITION TIME  TEMP    WIND        PRES    WAVE
                       AIR SEA DIR/SP/G            HT/PER
                 (UTC) (F)     (DEG/KT/KT) (MB)    (FT/S)
W MID LAKE BUOY  1850   55 49   40/  8/  8 1013.5F   0
DEVILS ISLAND    1900   61      90/  7/  8 1013.8F
SAXON HARBOR     1830   71      20/  1/  3 1013.5S
$$

LMZ867-665-643>646-212000-
LAKE MICHIGAN

STATION/POSITION TIME  TEMP    WIND        PRES    WAVE
                       AIR SEA DIR/SP/G            HT/PER
                 (UTC) (F)     (DEG/KT/KT) (MB)    (FT/S)
CHAMBERS ISLAND  1840   84     170/  3/  6 1013.5F
S GREEN BAY BUOY 1900   77 75  210/  2/  4 1014.0
N MID LAKE BUOY  1850   69 69  140/  4/  4 1014.8F   1/ 5
NORTHPORT PIER   1840   74     140/  5/  6 1014.2S
KEWAUNEE LAKESHO 1854   74     180/  9/ 10 1013.5F
SHEBOYGAN LAKESH 1900   75     160/ 11/ 12 1013.5F
PORT WASHINGTON  1840   77      CALM  /  3 1015.6F
ATWATER BUOY     1809   72 68  140/  6/  8 1014.9F
MILWAUKEE LAKESH 1900   72     140/ 12/ 13   N/A
S MID LAKE BUOY  1850   73 73  100/  6/  8 1014.5F   0
KENOSHA   LAKESH 1900   77     170/  6/  7 1014.9
$$

TC  - TEMPERATURE IN CELSIUS
VSB - VISIBILITY IN STATUTE MILES
WCI - WIND CHILL INDEX
HX  - HEAT INDEX





USA.gov is the U.S. government's official web portal to all federal, state and local government web resources and services.